Погода в Майске

Погода в Майске : погода сейчас, прогноз погоды и архив. Всё, что Вы хотите узнать о погоде в Майске!

Хотите узнать прогноз погоды в Майске? Тогда Вам сюда: Погода в Майске

Поиск расширенной информации на нашем сайте:

Другие новости

Новости СМИ2

Главная страница сайта

Новости сайта

02.10.2013

Напоминаем, что на нашем новом сайте вы можете получить высокодетализированные прогнозы погоды по пунктам России, СНГ и мира (включающие важные для авиации метеовеличины, такие как направление и скорость ветра, видимость, явления погоды, количество и форма облачности, нижняя и верхняя граница облачности), а также ознакомиться с разнообразными материалами по авиационной метеорологии и подборкой полезных ссылок на эту тему.

Сайт Метеоцентр.Азия посвящён разработке технологий оптимизации авиаметеорологического обслуживания, включая проектирование и перспективное создание нескольких автоматизированных авиаметеорологических систем:
- система выпуска высокодетальных прогностических карт явлений погоды для нижнего воздушного пространства по России и ближнему зарубежью;
- система верификации прогнозов TAF (выпускаемых синоптиками официальных АМСГ РФ и ближнего зарубежья) и AUTOTAF (выпускаемых сайтом Метеоцентр.Азия) - выявление ошибок, онлайн-сопоставление с фактической погодой METAR, автоматическое внесение коррективов в прогнозы при резком отклонении фактической погоды от прогноза, подсчёт оправдываемости прогнозов по элементам и в целом;
- система обработки, анализа и отображения авиаметеорологической информации для применения провайдерами метеорологической информации.

Рекомендуем: подогрев сидений

Погода в Майске - сегодня

Время (UTC), дата Ветер
(°,м/с) 
Видим.   Явления Облачность Т
(°С)
Тd
(°С)
f(%) Тe
(°С)
Pmin
(гПа)
dP
(гПа)
Po
(мм)
O2
(г/м3)
Тmin Tmax R s Состояние
почвы
12 13.01.17 110 (В) 20000 м    8/4 600 м средняя 
[Sc|Ac trans]
-28.7 -31.2 79 -29  1028.1  1.8  760  344    -22.6       
15 13.01.17 140 (ЮВ) 20000 м    8/0 средняя 
[Ac trans]
-28.7 -30.6 84 -29  1028.1  760  344           
18 13.01.17 110 (В) 20000 м    9/0 средняя 
[Ac trans]
-27.6 -30 80 -28  1027.7  -0.4  760  343           
21 13.01.17 тихо ()   20000 м    5/0 средняя 
[Ac trans]
-27.8 -29.7 84 -28  1027.1  -0.6  760  343           
00 14.01.17 110 (В) 20000 м    8/0 средняя 
[Ac trans]
-27.2 -29.6 80 -28  1026.4  -0.6  759  342  -29      80  неравномерный
сухой снег
100% 
03 14.01.17 тихо ()   20000 м    8/0 средняя 
[Ac trans]
-25.5 -27.3 85 -26  1026.1  -0.2  759  339           
06 14.01.17 тихо ()   20000 м    6/0 средняя, верхняя 
[Ac trans|Ci sp]
-25.5 -28 80 -26  1025.7  -0.4  759  339           
09 14.01.17 050 (СВ) 20000 м    ясно 
-22 -24.6 79 -22  1028.4  2.9  761  335           
12 14.01.17 тихо ()   20000 м    ясно 
-26.8 -28.7 84 -27  1030.5  1.7  762  342    -22       
15 14.01.17 тихо ()   20000 м    ясно 
-30.8 -33.2 79 -31  1032.7  764  349           
18 14.01.17 тихо ()   20000 м    ясно 
-32.7 -35.1 79 -33  1036.2  3.3  766  353           
21 14.01.17 тихо ()   20000 м    ясно 
-33.8 -36.2 79 -34  1037.3  1.1  767  355           
00 15.01.17 тихо ()   20000 м    ясно 
-34.9 -37.1 80 -35  1038.7  1.3  768  357  -34.4      80  неравномерный
сухой снег
100% 
03 15.01.17 110 (В) 20000 м    10/0 средняя 
[As trans]
-29.6 -32 80 -30  1038.8  0.4  768  349           
06 15.01.17 110 (В) 10 км  слаб. ливневой снег  10/8 600 м кучево-дожд., верхняя 
[Cb cap|Cc]
-26.2 -28.7 79 -30  1038.6  768  344           
09 15.01.17 140 (ЮВ) 10 км  слаб. ливневой снег  10/10 600 м кучево-дожд. 
[Cb cap]
-22.2 -24.8 79 -25  1038.3  -0.1  768  339           
12 15.01.17 140 (ЮВ) 10 км  ливневой снег  10/10 600 м кучево-дожд. 
[Cb cap]
-21.5 -24 80 -24  1036.3  -1.9  767  337    -21.5     
15 15.01.17 160 (Ю) 10 км  слаб. ливневой снег  10/10 600 м кучево-дожд. 
[Cb cap]
-20.4 -22.3 85 -23  1035.4  -0.8  766  335           
18 15.01.17 тихо ()   10 км  слаб. снег  9/4 600 м средняя 
[Sc|As trans]
-21.4 -23.2 85 -21  1036.2  0.7  767  337           
21 15.01.17 160 (Ю) 10 км  слаб. снег  8/8 600 м 
[Sc]
-24 -25.9 84 -27  1037.1  0.8  767  341           
00 16.01.17 160 (Ю) 20000 м  слаб. снег  9/0 средняя 
[Ac trans]
-20 -22.6 80 -20  1036.1  -0.8  767  335  -24    84  неравномерный
сухой снег
100% 
03 16.01.17 160 (Ю) 20000 м  {снег}  10/0 средняя 
[Ac trans]
-19.2 -21.1 85 -22  1036.8  0.7  767  334           
06 16.01.17 160 (Ю) 10 км  слаб. ливневой снег  10/10 600 м кучево-дожд. 
[Cb cap]
-17.3 -19.2 85 -17  1036.9  0.2  767  332           
09 16.01.17 160 (Ю) 20000 м  {ливн. осадки}  9/6 600 м верхняя 
[Sc|Cc]
-15.5 -17.4 85 -16  1035.1  -1.7  766  329           
12 16.01.17 160 (Ю) 20000 м  {ливн. осадки}  8/5 600 м средняя 
[Sc|Ac inh]
-15 -17 85 -15  1035.1  766  328    -15  0.2     
Время (UTC), дата Ветер
(°,м/с) 
Видим.   Явления Облачность Т
(°С)
Тd
(°С)
f(%) Тe
(°С)
Pmin
(гПа)
dP
(гПа)
Po
(мм)
O2
(г/м3)
Тmin Tmax R s Состояние
почвы

Для получения пояснительной информации подведите курсор к названию столбца.

ПОГОДА в Майске - архив

Всё, что Вы хотите узнать о погоде в Майске - удобно и подробно!

Выберите нужную дату (начиная с 1 января 2015* года) и нажмите кнопку "Найти".
Будут отображены архивные сводки погоды по пункту Майск, начиная с указанной даты.


Отображать данные в формате CSV (для использования в таблицах Excel)


Внимание! Наш архив погоды предназначен исключительно для личного некоммерческого использования в познавательных целях. Если Вам необходимы официальные справки о состоянии погоды (для производственных, юридических, коммерческих и т.п. целей), обращайтесь в органы Росгидромета.

*Примечание: данная дата относится к архиву по метеостанциям СССР (Россия, СНГ, Балтия).
Архив по метеостанциям Зарубежной Европы и Азии (кроме Китая) хранится 10 дней, по другим регионам земного шара (Китай, Африка, Америка, Австралия, Океания) - 1 день.

Майск - район местоположения метеостанции


Название, широта, долгота, высота метеостанции:
Майск 57.8°ш. 77.3°д. 100 м над ур. моря [Российская Федерация]

Дополнительная информация

В oтличие oт бoльшинства пoгoдных сайтoв мы публикуем пoдрoбную метеoинфoрмацию в детальнoм прoфессиoнальнoм фoрмате.

Характеристики температуры и влажнoсти вoздуха измеряются на высoте 2 м в тени вдали oт зданий и деревьев.
Скoрoсть ветра измеряется на высoте 10 м (на урoвне рoста челoвека скoрoсть ветра ниже в 1.5-2 раза). Если метеoстанция нахoдится в гoрoде или в лесу, тo скoрoсть ветра занижена на 2-4 м/с пo сравнению с oткрытым местoм. Скoрoсть ветра над акватoриями крупных рек и oзёр, а также на вершинах хoлмoв на 2-5 м/с выше, чем в oбычных услoвиях.
Атмoсфернoе давление в разных тoчках местнoсти мoжет значительнo oтличаться oт давления на метеoстанции, в зависимoсти oт услoвий рельефа (при пoдъёме на 10 м давление пoнижается примернo на 1 мм рт.ст.).